Location: *
(41.0833°N, 73.4167°W)
Time: 06:55:49
(UTC+00:00)

Cosmos 990 Rocket - Pass Details

Date: 22 October 2019
Orbit: 746 x 769 km, 74.0° (Epoch: 21 November)

Event Time Altitude Azimuth Distance (km) Brightness Sun altitude
Rises 00:34:20 0° 338° (NNW) 3,225 7.7 -28.9°
Reaches altitude 10° 00:36:43 10° 336° (NNW) 2,299 6.9 -29.3°
Enters shadow 00:41:05 58° 304° (NW) 887 4.4 -30.1°
